Newark Heath, OH

9:08 AM EST on January 17, 2018 (GMT -0500)
Newark Heath

Weather History for KVTA - January, 2013

Change the Weather History Date:

Wednesday, January 16, 2013

  Actual Average Record
Temperature  
Mean Temperature 34 °F -  
Max Temperature 36 °F 35 °F 46 °F (2017)
Min Temperature 32 °F 15 °F 6 °F (2018)
Degree Days  
Heating Degree Days 31    
Moisture  
Dew Point 26 °F    
Average Humidity 74    
Maximum Humidity 85    
Minimum Humidity 67    
Precipitation  
Precipitation 0.00 in - - ()
Sea Level Pressure  
Sea Level Pressure 30.01 in    
Wind  
Wind Speed 4 mph (SW)    
Max Wind Speed 13 mph    
Max Gust Speed -    
Visibility 9 miles    
Events      
Averages and records for this station are not official NWS values.
T = Trace of Precipitation, MM = Missing Value Source: NWS Daily Summary

Daily Weather History Graph

Daily Weather History Graph

Search for Another Location

Airport or City:

Trip Planner

Search our weather history database for the weather conditions in past years. The results will help you decide how hot, cold, wet, or windy it might be!

Date:

Astronomy

Jan. 16, 2013 Rise Set
Actual Time 7:49 AM EST 5:30 PM EST
Civil Twilight 7:19 AM EST 6:00 PM EST
Nautical Twilight 6:46 AM EST 6:33 PM EST
Astronomical Twilight 6:13 AM EST 7:05 PM EST
Moon 10:25 AM EST (1/16) 11:20 PM EST (1/16)
Length of Visible Light 10h 40m
Length of Day
9h 41m
Waxing Crescent, 28% of the Moon is Illuminated
Jan 16
Waxing Crescent
Jan 18
First Quarter
Jan 26
Full
Feb 3
Last Quarter
Feb 10
New

Hourly Weather History & Observations

Time (EST) Temp. Windchill Dew Point Humidity Pressure Visibility Wind Dir Wind Speed Gust Speed Precip Events Conditions
1:54 AM 32.0 °F 26.4 °F 23.0 °F 69% 30.04 in 10.0 mi ENE 5.8 mph - N/A   Overcast
2:54 AM 32.0 °F - 24.1 °F 73% 30.05 in 10.0 mi Calm Calm - N/A   Overcast
3:26 AM 32.0 °F - 24.8 °F 75% 30.02 in 10.0 mi Calm Calm - N/A   Overcast
3:34 AM 32.0 °F - 24.8 °F 75% 30.01 in 10.0 mi Calm Calm - N/A   Overcast
3:54 AM 32.0 °F - 23.0 °F 69% 30.04 in 10.0 mi Calm Calm - N/A   Overcast
4:54 AM 32.0 °F - 23.0 °F 69% 29.98 in 10.0 mi Calm Calm - N/A   Overcast
5:32 AM 32.0 °F - 24.8 °F 75% 29.95 in 10.0 mi Calm Calm - N/A   Overcast
5:54 AM 32.0 °F 27.5 °F 24.1 °F 73% 29.98 in 10.0 mi North 4.6 mph - N/A   Overcast
6:54 AM 32.0 °F - 23.0 °F 69% 29.97 in 10.0 mi Calm Calm - N/A   Overcast
7:54 AM 32.0 °F - 24.1 °F 73% 29.98 in 10.0 mi Calm Calm - N/A   Overcast
8:54 AM 32.0 °F - 24.1 °F 73% 29.99 in 10.0 mi Calm Calm - N/A   Overcast
9:54 AM 33.1 °F 26.9 °F 24.1 °F 70% 30.01 in 10.0 mi SW 6.9 mph - N/A   Overcast
10:36 AM 33.8 °F 27.7 °F 24.8 °F 70% 29.99 in 9.0 mi WSW 6.9 mph - N/A   Overcast
10:54 AM 33.1 °F 26.1 °F 25.0 °F 72% 30.02 in 9.0 mi WSW 8.1 mph - N/A   Overcast
11:54 AM 34.0 °F 27.2 °F 26.1 °F 73% 29.98 in 8.0 mi WSW 8.1 mph - N/A   Overcast
12:54 PM 35.1 °F 28.6 °F 26.1 °F 70% 29.96 in 9.0 mi WSW 8.1 mph - N/A   Overcast
1:54 PM 36.0 °F 30.3 °F 26.1 °F 67% 29.94 in 10.0 mi West 6.9 mph - N/A   Overcast
3:54 PM 36.0 °F 29.6 °F 27.0 °F 70% 29.98 in 8.0 mi SSW 8.1 mph - N/A   Clear
4:54 PM 35.1 °F 27.4 °F 27.0 °F 72% 29.99 in 8.0 mi SSW 10.4 mph - N/A   Clear
5:54 PM 34.0 °F 25.0 °F 27.0 °F 75% 30.01 in 9.0 mi SW 12.7 mph - N/A   Clear
6:54 PM 33.1 °F 25.5 °F 28.9 °F 85% 30.02 in 6.0 mi SSW 9.2 mph - N/A   Scattered Clouds
7:04 PM 33.8 °F 27.0 °F 28.4 °F 81% 30.00 in 6.0 mi SSW 8.1 mph - N/A   Mostly Cloudy
7:54 PM 33.1 °F 25.5 °F 28.9 °F 85% 30.04 in 6.0 mi SW 9.2 mph - N/A   Mostly Cloudy
8:54 PM 33.1 °F 26.1 °F 28.0 °F 82% 30.04 in 6.0 mi SSW 8.1 mph - N/A   Haze
9:54 PM 33.1 °F 28.7 °F 28.0 °F 82% 30.04 in 8.0 mi SW 4.6 mph - N/A   Clear
10:54 PM 33.1 °F 26.9 °F 27.0 °F 78% 30.04 in 8.0 mi WSW 6.9 mph - N/A   Partly Cloudy
11:54 PM 33.1 °F 25.5 °F 27.0 °F 78% 30.07 in 9.0 mi SW 9.2 mph - N/A   Clear